661  
ASUS44 KSHV 190310  
RWRSHV  
 
WEATHER ROUNDUP FOR THE FOUR STATE AREA  
NATIONAL WEATHER SERVICE SHREVEPORT LA  
1000 PM CDT WED JUL 18 2018  
 
NOTE: "FAIR" INDICATES FEW OR NO CLOUDS BELOW 12000 FEET  
WITH NO SIGNIFICANT WEATHER AND/OR S TO VISIBILITY
.  
 
!LAZ001-LAZ014-TXZ097-190400  
SHREVEPORT...MONROE...TEXARKANA RADIOS  
 
CITY SKY/WX TMP DP RH WIND PRES REMARKS
 
SHREVEPORT CLOUDY 87 76 69 SE7 29.90R  
MONROE N/A 82 77 84 S6 29.93R  
NATCHITOCHES N/A 80 78 93 CALM 29.93R  
TEXARKANA PTCLDY 83 75 77 SE5 29.89R  

 
 
!LAZ001-LAZ014-TXZ097-190400  
OTHER LOCATIONS...  
 
CITY SKY/WX TMP DP RH WIND PRES REMARKS
 
DOWNTOWN SHV LGT RAIN 86 77 74 SE10 29.90R  
BOSSIER CITY N/A 83 74 72 SE8 29.90R  
RUSTON N/A 82 74 75 S7 29.96R  
LITTLE ROCK CLOUDY 78 77 96 CALM 29.92R  
EL DORADO N/A 81 79 94 CALM 29.91R  
JACKSON N/A 74 74 100 S3 29.95S  
NEW ORLEANS LGT RAIN 77 76 96 CALM 29.96F  
HOUSTON N/A 88 76 67 S7 29.93R HX 99  
LUFKIN CLEAR 84 76 76 S6 29.93R  
TYLER CLOUDY 91 69 48 S10 29.89R  
DAL FT WORTH PTCLDY 96 64 34 S16 29.83S HX 98  

 
 
!TXZ136-TXZ165-190400  
TYLER...LUFKIN RADIOS  
 
CITY SKY/WX TMP DP RH WIND PRES REMARKS
 
TYLER CLOUDY 91 69 48 S10 29.89R  
GILMER CLOUDY N/A N/A N/A S8 29.88S  
LONGVIEW CLOUDY 89 72 56 S10 29.88S  
LUFKIN CLEAR 84 76 76 S6 29.93R  

 
 
!TXZ136-TXZ165-190400  
OTHER LOCATIONS...  
 
CITY SKY/WX TMP DP RH WIND PRES REMARKS
 
NACOGDOCHES N/A 86 75 69 SE6 29.93S  
BEAUMONT N/A 83 76 79 S7 29.95R  
HOUSTON N/A 88 76 67 S7 29.93R HX 99  
COLLEGE STN CLEAR 87 70 56 SE8 29.92R  
AUSTIN CLEAR 90 66 45 SE12 29.90R  
DAL FT WORTH PTCLDY 96 64 34 S16 29.83S HX 98  
TEXARKANA PTCLDY 83 75 77 SE5 29.89R  
SHREVEPORT CLOUDY 87 76 69 SE7 29.90R  
FORT POLK MOCLDY 82 76 81 SW5 29.93R  
LAKE CHARLES N/A 85 77 77 SW6 29.95R  

 
 
 
CLICK HERE TO GO TO PREVIOUS BULLETINS.

The Nexlab LA Page
The Nexlab TX Page
The Nexlab AR Page
The Nexlab OK Page Main Text Page